ORBCOMM FM 36 DEB

基本信息
目录编号:
57395
目录名称:
ORBCOMM FM 36 DEB
国际标识:
1999-065T
轨道中心:
EARTH
物体状态:
已陨落(2023-11-25)
发射日期:
1999-12-04 UTC
轨道信息
数据来源: 国际轨道数据
星历时间: 2023-10-21T11:43:05+0800
半长轴: 7057.792km
偏心率: 0.0090907
轨道倾角: 44.899°
近地点辐角: 111.904°
升交点赤经: 102.935°
平近点角: 249.151°
近地点: 615.496km
远地点: 743.818km
周期: 98.347分钟
每日圈数: 14.641971
详细信息
发射场:
AFETR
轨道高度:
LEO
数据来源:
AOE Integration Group
参考系:
TEME
时间系统:
UTC
历元类型:
SGP4
2D轨道图
3D轨道图
轨道高度分析图
轨道倾角分析图
轨道综合分析图
查看轨道综合分析图